Regional Weather Roundup
Issued by NWS Upton, NY

Current Version | Previous Version | Graphics & Text | Print | Product List | Glossary Off
Versions: 1 2 3 4 5 6 7 8 9 10 11 12 13 14 15 16 17 18 19 20 21 22 23 24 25 26 27 28 29 30 31 32 33 34 35 36 37 38 39 40 41 42 43 44 45 46 47 48 49 50

000
ASUS41 KOKX 301908
RWROKX

REGIONAL WEATHER ROUNDUP
NATIONAL WEATHER SERVICE NEW YORK NY
300 PM EDT THU JUL 30 2015

NOTE: "FAIR" INDICATES FEW OR NO CLOUDS BELOW 12,000 FEET WITH NO
SIGNIFICANT WEATHER AND/OR OBSTRUCTIONS TO VISIBILITY.

NYZ071-072-176-178-NJZ106-104-302000-
NEW YORK CITY METRO AREA


CITY           SKY/WX    TMP DP  RH WIND       PRES   REMARKS
CENTRAL PARK   PTSUNNY   77  74  90 CALM      29.86F FOG
LAGUARDIA APRT TSTM      75  72  88 E9        29.83S FOG
KENNEDY INTL   PTSUNNY   80  73  79 S23G29    29.84F
NEWARK/LIBERTY PTSUNNY   87  78  74 SW14G20   29.81F HX 100
BRNX BOT. GARD   N/A     75  72  88 SE5       29.85R
TETERBORO      PTSUNNY   86  73  65 S10       29.80F HX  93
$$

NYZ177-179-078>081-302000-
LONG ISLAND NEW YORK

CITY           SKY/WX    TMP DP  RH WIND       PRES   REMARKS
FARMINGDALE    PTSUNNY   82  72  71 SW22G32   29.84F
ISLIP          CLOUDY    82  72  71 S14G26    29.83F
SHIRLEY        PTSUNNY   81  73  76 S17G29    29.86F
WESTHAMPTON    PTSUNNY   84  74  71 SW16G26   29.87F HX  91
MONTAUK POINT    N/A     80  74  81 S8        29.88F
$$

NYZ052-065-067-302000-
HUDSON VALLEY

CITY           SKY/WX    TMP DP  RH WIND       PRES   REMARKS
WHITE PLAINS   LGT RAIN  84  74  71 S9G20     29.82F HX  91
NEWBURGH       LGT RAIN  84  75  74 W12G23    29.83S HX  92
MONTGOMERY     LGT RAIN  77  72  84 W8        29.82S
POUGHKEEPSIE   CLOUDY    80  75  84 CALM      29.79F
ALBANY         CLOUDY    82  75  79 S10       29.77F
$$

NJZ001-105-106-008-010-013-015-019>022-104-302000-
NEW JERSEY

CITY           SKY/WX    TMP DP  RH WIND       PRES   REMARKS
NEWARK/LIBERTY PTSUNNY   87  78  74 SW14G20   29.81F HX 100
TETERBORO      PTSUNNY   86  73  65 S10       29.80F HX  93
CALDWELL       PTSUNNY   86  73  65 SW6       29.81F HX  93
MORRISTOWN     PTSUNNY   88  75  66 SW15G23   29.82F HX  97
SOMERVILLE     PTSUNNY   84  74  71 VRB6      29.81F HX  91
SUSSEX         CLOUDY    81  73  76 NW5       29.84S
ANDOVER          N/A     75  73  93 N3        29.87R
TRENTON        PTSUNNY   85  73  67 SW12      29.84F HX  91
MILLVILLE      MOSUNNY   90  75  61 VRB5      29.87F HX 100
ATLANTIC CITY  MOSUNNY   85  73  67 S10G20    29.87F HX  91
WRIGHTSTOWN    PTSUNNY   88  75  66 SW15      29.82F HX  98
TOMS RIVER       N/A     88  73  62 SW13      29.85F HX  96
BELMAR         PTSUNNY   88  72  58 S12G17    29.84F HX  94
$$

PAZ047>061-062-071-302000-
EASTERN PENNSYLVANIA

CITY           SKY/WX    TMP DP  RH WIND       PRES   REMARKS
PHILADELPHIA   LGT RAIN  84  77  79 W13G23    29.85F HX  94
ALLENTOWN      LGT RAIN  76  72  87 W6        29.86F
SCRANTON       LGT RAIN  84  71  65 SW6G17    29.85F
$$

CTZ002-004>006-009-010-012-RIZ004-006-007-MAZ004-011-015-302000-
SOUTHERN NEW ENGLAND
 IN CT

CITY           SKY/WX    TMP DP  RH WIND       PRES   REMARKS
BRADLEY INTL   PTSUNNY   89  72  56 S13       29.78F HX  96
HARTFORD       MOSUNNY   87  74  64 S10G22    29.79F HX  95
DANBURY        MOSUNNY   84  73  69 S14G22    29.83F HX  90
WTRBRY/OXFORD  CLOUDY    82  72  69 S12G17    29.85F HAZE
BRIDGEPORT     MOSUNNY   85  74  69 S14       29.82F HX  92
MERIDEN        PTSUNNY   86  73  65 S12G22    29.81F HX  93
NEW HAVEN      PTSUNNY   84  75  74 S10       29.83F HX  92
CHESTER        CLOUDY    81  75  83 S9G17     29.86F
GROTON         CLOUDY    82  73  74 SW13      29.84F
WILLIMANTIC    PTSUNNY   86  73  65 SW12G25   29.82F HX  93

 IN RI

CITY           SKY/WX    TMP DP  RH WIND       PRES   REMARKS
PROVIDENCE     PTSUNNY   86  74  67 SW17      29.84F HX  94
BLOCK ISLAND     N/A     77  73  88 SW15      29.88F
WESTERLY       CLOUDY    81  73  76 S13G21    29.87F

 IN MA

CITY           SKY/WX    TMP DP  RH WIND       PRES   REMARKS
BOSTON         PTSUNNY   89  71  55 SW21G28   29.78F HX  95
WORCESTER      MOSUNNY   82  70  66 S12       29.84F
WESTFIELD      PTSUNNY   86  72  62 S15       29.78F HX  92
PROVINCETOWN   PTSUNNY   82  68  61 SW20      29.83F
NANTUCKET      CLOUDY    78  71  79 SW13      29.89F
$$

ANZ330-335-338-340-345-350-353-355-302000-
COASTAL MARINE OBSERVATIONS


STATION/POSITION TIME  SKY/WX   TEMP    WIND        PRES    VSBY  WAVE
                                AIR SEA DIR/SP/G                  HT/PER
                 (UTC)          (F)     (DEG/KT/KT) (MB)    (MI)  (FT/S)
NY HARB ENTRANCE 1850            78 77  200/ 23/ 27 1009.5          5/ 5
4S FIRE IS       NOT AVBL
20S FIRE ISLAND  1850            77 76  200/ 17/ 19 1010.8          5/ 6
GREAT SOUTH BAY  1800            78 81  200/ 14/ 21   N/A
23SW MTP         1850            77 74  210/ 17/ 19 1010.9          4/ 5
HUDSON CANYON    NOT AVBL
KINGS POINT      1800            80 71  190/ 12/ 15 1009.8
EXECUTION ROCKS  1800            80     190/  6/  8   N/A
CENTRAL LI SOUND NOT AVBL
EASTERN LI SOUND 1800            75 68  210/ 12/ 14   N/A
ROBBINS REEF     1800            85     190/ 15/ 20 1008.7
$$


>>>>>>>>>>>>>>>>>>>>>>>>>>>> KEY <<<<<<<<<<<<<<<<<<<<<<<<<<<
>                                                          <
>     SKY/WX - SKY CONDITION/PRESENT WEATHER               <
>     TMP    - TEMPERATURE IN FAHRENHEIT                   <
>     DP     - DEWPOINT IN FAHRENHEIT                      <
>     RH     - RELATIVE HUMIDITY IN PERCENT                <
>     WIND   - DIRECTION AND SPEED IN MPH                  <
>     PRES   - MEAN SEA LEVEL PRESSURE IN INCHES OF HG     <
>     WCI    - WIND CHILL INDEX                            <
>     VSB    - VISIBILITY IN MILES                         <
>     HX     - HEAT INDEX                                  <
>     TC     - TEMPERATURE IN CELSIUS                      <
>     VRB    - VARIABLE WIND DIRECTION                     <
>                                                          <
>>>>>>>>>>>>>>>>>>>>>>>>>>>> KEY <<<<<<<<<<<<<<<<<<<<<<<<<<<




USA.gov is the U.S. government's official web portal to all federal, state and local government web resources and services.